Regional Weather Roundup
Issued by NWS Jackson, KY

Home | Current Version | Previous Version | Graphics & Text | Print | Product List | Glossary On
Versions: 1 2 3 4 5 6 7 8 9 10 11 12 13 14 15 16 17 18 19 20 21 22 23 24 25 26 27
000
ASUS43 KJKL 271010
RWRJKL

EAST KENTUCKY HOURLY WEATHER ROUNDUP
NATIONAL WEATHER SERVICE JACKSON KY
600 AM EDT TUE SEP 27 2016

NOTE: "FAIR" INDICATES FEW OR NO CLOUDS BELOW 12,000 FEET WITH
NO SIGNIFICANT WEATHER AND/OR OBSTRUCTIONS TO VISIBILITY.

* THESE REPORTS ARE NOT UNDER NWS QUALITY CONTROL AND MAY NOT
  REPORT WEATHER SUCH AS PRECIPITATION AND FOG.

KYZ079-080-083-085-087-088-110-112-115-119-120-271100
...EASTERN KENTUCKY...

CITY           SKY/WX    TMP DP  RH WIND       PRES   REMARKS
JACKSON        FOG       51  49  92 CALM      30.06R VSB 1/4
LONDON         MOCLDY    49  46  90 CALM      30.06S
SOMERSET*      FOG       50  50 100 CALM      30.07F VSB 1/4
MONTICELLO*    FOG       49  48  97 W9        30.07F VSB 1/4
WILLIAMSBURG*  PTSUNNY   50  50 100 CALM      30.06S VSB 1/2
MIDDLESBORO*   CLOUDY    61  56  84 CALM      30.05S
HARLAN APT*    CLOUDY    59  52  77 CALM      30.05S
PIKE CO APT*     N/A     55  54  97 CALM      30.06S
BIG SANDY APT* FOG       51  51 100 CALM      30.05S VSB 1/2
MOREHEAD APT*  SUNNY     50  48  93 CALM      30.06S
ASHLAND*       CLEAR     50  46  87 CALM      30.02S
$$

KYZ035-036-041-042-044-050-067-078-099-271100
...CENTRAL KENTUCKY...

CITY           SKY/WX    TMP DP  RH WIND       PRES   REMARKS
MT STERLING*   CLEAR     46  46 100 SW5       30.06S FOG
FLEMING/MASON* CLEAR     49  49  97 SW7       30.04F
DANVILLE*      CLEAR     46  45  93 CALM      30.06S
LEXINGTON      CLEAR     50  47  89 S6        30.04F
FRANKFORT      CLEAR     51  48  89 SW3       30.03S
LOUISVILLE     CLEAR     55  50  83 S6        30.03S
LEBANON*         N/A     52  50  93 CALM      30.05S
GLASGOW*       FOG      N/A N/A N/A CALM      30.06R VSB 1/2
BOWLING GREEN  FOG       50  48  93 CALM      30.06S VSB 1/2
$$

KYZ091>093-OHZ055-061-077-WVZ005-015-034-035-042-271100
...SOUTHERN OHIO/WEST VIRGINIA...

CITY           SKY/WX    TMP DP  RH WIND       PRES   REMARKS
COVINGTON      CLEAR     50  49  96 S5        30.01F
COLUMBUS       CLEAR     50  49  96 SE5       29.98S
DAYTON         CLEAR     50  45  83 SW9       29.98F
WILMINGTON     CLEAR     46  46 100 S5        30.00F
HUNTINGTON     FOG       50  48  93 SW3       30.03S VSB 1/4
CHARLESTON     FOG       53  52  96 CALM      30.04S VSB 1/2
PINEVILLE*     PTCLDY    55  51  89 MISG      30.10S
BECKLEY        CLOUDY    54  51  90 N3        30.06S
BLUEFIELD      CLOUDY    56  54  93 NW5       30.07R FOG
LOGAN CO APT*  FOG       52  52 100 CALM      30.04S VSB<1/4
$$

VAZ002-007-008-TNZ017-027-036-066-071-271100
...SOUTHWEST VIRGINIA/EAST TENNESSEE...

CITY           SKY/WX    TMP DP  RH WIND       PRES   REMARKS
WISE*          FOG       55  55 100 N5        30.07F VSB<1/4
JONESVILLE*    CLOUDY    63  57  82 NW3       30.05S
ABINGDON*      CLOUDY    65  64  94 N3        30.02S
BRISTOL        CLOUDY    66  64  93 N5        30.00F
MORRISTOWN*    CLOUDY    66  63  88 NW5       30.00S
SEVIERVILLE*   CLOUDY    66  64  94 NW6       30.00R
KNOXVILLE      LGT RAIN  66  63  90 NE7       29.99S
OAK RIDGE      CLOUDY    65  59  81 VRB6      30.02S
CROSSVILLE     CLOUDY    57  56  96 N6        30.05S
NASHVILLE      CLEAR     56  52  86 CALM      30.06S
$$

...KEY TO REMARKS...
VSB - VISIBILITY IN MILES
WCI - WIND CHILL INDEX
HX  - HEAT INDEX

$$




USA.gov is the U.S. government's official web portal to all federal, state and local government web resources and services.